GFSFLT1_con_3kmhel_108.txt.gz
Helicity
43 75 53 46 60 57 289 366 297 264 177 165 181 204 221 228 180 138 142 105 98 125 157 135 105 152 172 167 155 151 159 184
64 108 93 66 66 55 182 314 316 376 213 203 219 257 278 295 215 160 165 133 105 113 149 158 185 175 173 153 133 143 179 165
67 50 73 84 46 54 142 222 300 343 240 214 202 266 317 263 232 193 167 141 137 146 210 226 211 179 151 132 95 165 193 227
17 35 37 90 112 109 156 179 203 290 250 238 206 357 311 190 180 151 132 175 207 185 243 231 195 159 146 123 106 188 287 314
135 88 82 97 109 154 189 232 263 307 273 175 146 333 352 275 261 179 164 154 197 195 274 236 203 175 128 94 132 213 258 163
222 210 192 125 112 114 116 198 249 326 333 206 128 263 259 216 220 183 172 169 183 225 272 273 217 182 130 99 66 103 172 291
247 266 240 175 106 138 71 116 223 250 386 188 158 204 241 243 214 242 175 194 215 193 253 254 218 161 162 112 116 101 151 201
202 192 145 244 135 163 91 63 125 249 360 281 180 184 259 254 200 196 213 183 209 229 242 251 233 158 164 164 106 88 93 87
86 111 128 63 147 162 181 44 76 236 292 336 221 202 277 212 194 240 183 171 188 190 235 225 210 176 167 141 132 104 120 88
56 75 109 129 116 142 160 196 58 176 236 320 234 233 242 192 261 188 152 216 156 174 188 232 217 148 132 141 108 119 98 98
10 54 121 148 189 180 325 60 58 175 249 287 252 237 178 212 186 176 189 234 204 164 153 140 173 162 191 168 113 108 111 118
34 52 94 124 207 282 456 276 151 213 326 364 352 243 211 222 216 200 261 348 270 185 144 125 154 163 196 155 133 132 114 108
55 25 28 99 188 294 393 442 240 314 323 343 368 282 243 241 209 218 291 238 210 155 139 130 134 159 156 145 141 124 123 111
56 28 18 60 137 299 330 394 108 63 87 115 230 266 190 230 195 244 210 181 186 142 112 125 104 95 94 124 139 114 95 89
42 52 76 76 62 319 333 445 347 68 64 101 179 191 202 183 208 269 228 178 178 139 110 112 118 87 68 61 66 65 60 49
70 38 40 103 73 287 393 416 350 303 223 145 91 140 159 228 242 263 214 190 171 172 173 161 154 116 115 59 44 31 24 24
69 89 85 89 100 106 450 403 395 344 357 337 328 264 315 304 343 273 227 188 181 170 162 141 140 203 187 141 85 61 57 42
67 98 104 92 131 -36 307 385 379 406 425 478 486 543 597 559 555 427 340 283 183 212 233 294 298 257 258 189 144 98 142 161
64 72 96 84 87 74 14 187 310 446 447 432 542 583 639 715 644 558 543 447 414 430 423 329 269 278 272 239 185 168 201 183

GFSFLT1_con_3kmhel_111.txt.gz
Helicity
153 111 84 95 57 80 286 512 464 422 406 361 322 284 259 245 191 148 174 153 165 201 201 204 222 235 205 178 184 183 157 146
110 118 102 83 74 94 205 344 448 523 465 362 320 315 292 263 210 145 154 153 141 182 217 196 226 243 204 160 194 168 178 161
103 121 102 114 84 75 120 238 423 415 423 339 332 376 354 302 250 163 170 163 146 166 234 223 256 289 240 206 183 165 131 118
114 110 125 110 70 41 125 208 335 412 317 382 415 407 345 373 324 258 222 175 181 177 243 264 286 288 256 201 177 143 121 105
301 336 291 256 213 138 89 284 281 320 343 329 319 407 377 338 380 343 250 204 206 243 294 295 272 280 248 171 166 130 130 98
462 444 363 314 332 313 332 214 223 300 322 299 320 370 317 358 328 265 223 205 240 317 325 318 265 258 224 177 143 116 96 214
426 382 348 285 239 264 274 298 260 251 326 273 314 352 335 334 276 248 244 226 220 294 325 324 274 254 230 174 128 122 120 144
386 332 256 209 176 185 202 225 292 359 318 328 346 353 341 313 299 275 275 268 233 259 332 323 276 242 224 178 129 116 126 151
261 230 124 99 116 108 227 285 294 290 182 317 327 363 382 325 273 280 265 230 207 220 288 291 264 243 240 172 151 106 108 127
164 120 81 80 95 163 115 109 141 279 163 304 371 396 382 354 281 250 256 222 215 213 269 257 250 229 241 165 128 117 113 89
71 85 79 98 123 158 241 211 204 66 151 257 356 404 366 347 312 276 225 199 187 195 207 216 251 235 229 169 144 119 116 127
128 146 108 92 130 166 233 284 405 323 217 325 318 356 354 380 298 273 226 216 191 163 210 198 214 201 194 169 139 124 116 109
202 222 164 115 99 192 225 299 380 456 300 375 317 332 358 349 267 341 284 270 208 192 191 207 179 171 177 165 172 125 107 133
173 185 202 198 162 122 179 265 301 384 329 211 296 312 270 290 332 351 362 324 234 212 187 197 182 179 172 156 150 125 97 113
140 130 144 160 206 167 102 232 296 319 258 261 295 237 201 261 324 333 303 245 200 179 156 154 149 160 166 160 143 128 95 71
130 115 133 127 195 258 135 153 331 349 301 288 254 291 158 223 291 335 242 210 171 182 170 154 146 145 172 135 143 137 115 88
150 154 153 150 152 186 213 85 264 361 347 303 290 359 506 411 255 244 213 125 155 186 162 178 256 251 225 167 111 109 87 66
75 88 91 92 99 94 160 188 65 352 375 356 323 306 526 642 634 444 357 219 290 326 365 316 313 273 278 188 166 140 138 163
0 -3 32 54 63 93 76 89 91 89 371 360 335 317 415 462 648 695 581 533 466 473 475 491 384 363 324 228 211 264 282 256

GFSFLT1_con_3kmhel_114.txt.gz
Helicity
61 92 103 69 122 151 199 278 296 347 351 356 345 296 256 244 244 227 200 165 172 182 197 219 246 249 268 249 227 195 182 168
92 90 114 198 190 209 220 252 238 386 471 395 348 282 303 292 272 252 217 194 185 202 202 228 269 278 262 246 231 202 203 162
75 101 93 52 31 46 194 192 254 378 487 427 390 378 315 279 291 237 217 191 188 203 209 222 254 261 263 264 271 246 219 225
212 405 386 310 231 234 83 154 263 306 389 503 512 491 361 288 218 215 225 195 178 190 198 226 249 259 227 214 246 250 234 216
424 504 494 462 439 405 389 253 158 216 390 498 522 458 408 300 289 289 293 209 185 194 206 215 245 259 252 225 233 230 257 205
583 534 467 476 451 405 425 445 327 197 208 345 523 409 343 371 337 369 337 267 202 203 212 237 250 282 264 285 252 225 209 190
557 555 510 477 437 385 366 342 315 394 248 137 192 277 344 393 340 351 389 271 249 224 222 251 258 269 284 278 225 205 196 175
633 638 577 482 416 332 226 298 363 378 323 221 148 200 297 354 363 318 380 333 286 265 284 280 291 263 281 269 225 196 177 145
508 437 382 343 286 220 180 193 248 324 303 200 153 192 376 343 338 358 357 311 279 296 305 274 275 265 269 260 233 192 161 141
496 465 383 353 304 257 222 237 287 310 315 247 141 186 353 362 355 331 315 263 237 284 291 267 246 245 266 259 222 172 150 153
396 348 341 294 205 154 127 124 160 312 376 351 146 258 327 391 363 312 293 262 207 229 235 241 220 225 235 243 201 157 160 127
373 325 277 230 208 164 141 171 203 279 313 321 142 153 278 419 359 312 330 278 165 198 215 209 221 185 203 215 194 169 159 131
266 286 279 285 273 256 234 250 235 244 301 287 241 243 251 327 311 279 321 287 205 180 213 172 184 174 202 205 200 173 170 154
329 309 291 319 293 283 304 267 284 256 286 274 296 390 264 220 253 265 301 312 245 204 187 166 136 160 189 154 169 175 152 126
214 247 267 296 281 244 292 300 260 199 253 280 239 296 305 167 183 263 314 268 223 225 202 158 143 159 137 143 172 174 154 132
174 200 218 245 253 258 290 295 276 203 143 258 252 277 315 294 164 212 292 274 240 251 211 172 158 170 173 160 169 143 137 137
87 91 132 159 189 196 173 270 206 197 157 269 248 247 290 367 442 360 267 313 286 264 188 174 245 242 229 238 160 151 144 126
28 43 61 93 132 135 131 179 188 211 206 257 373 306 301 333 362 632 579 549 447 435 369 311 283 261 217 228 218 152 149 143
-4 -4 -7 7 17 31 51 94 100 152 237 230 298 322 262 266 420 618 778 705 638 556 485 399 329 348 318 183 247 279 293 278

GFSFLT1_con_3kmhel_117.txt.gz
Helicity
98 85 136 98 115 154 195 272 236 280 311 276 277 257 193 220 220 216 202 174 172 170 181 199 216 202 194 205 198 194 183 166
123 100 101 128 194 211 218 229 209 331 359 368 320 296 251 215 214 219 219 189 184 189 178 195 208 213 227 232 222 219 211 200
74 130 179 217 230 249 209 230 206 289 323 334 369 313 312 298 304 235 210 222 210 220 212 194 205 220 234 244 253 243 232 241
117 80 210 313 307 382 296 124 137 220 233 307 452 428 401 349 239 221 189 250 235 226 235 217 213 217 227 252 238 232 240 242
388 386 389 531 513 416 420 438 306 174 201 244 297 349 404 273 298 302 292 309 284 241 258 258 220 214 206 237 238 206 228 248
631 512 431 521 600 549 452 472 432 399 352 240 249 243 219 186 295 290 341 273 262 257 275 281 247 229 190 204 199 199 243 264
624 578 552 595 618 599 514 483 458 381 346 343 217 240 265 271 278 213 282 282 294 260 294 270 254 248 255 234 217 227 240 265
691 701 677 583 572 571 504 463 383 355 338 300 265 186 231 258 256 86 174 262 299 294 311 265 248 256 267 264 251 251 250 232
586 592 598 581 563 519 459 409 394 367 317 275 256 201 199 207 226 230 283 284 310 379 331 252 227 251 252 242 261 268 240 218
496 476 469 441 424 402 355 329 303 335 374 303 258 194 171 229 218 268 280 289 317 393 342 278 253 249 265 253 267 253 222 204
576 581 487 403 331 324 312 258 208 220 265 302 283 301 160 191 257 246 259 278 321 340 298 270 272 251 271 256 251 248 218 182
511 520 417 328 282 294 310 331 292 268 281 308 288 302 173 190 271 281 270 310 300 267 254 237 218 245 266 241 232 234 203 168
369 406 376 320 299 292 308 321 271 261 263 270 263 279 368 151 198 222 262 286 271 223 221 222 216 200 257 213 209 213 182 163
317 359 347 373 366 390 358 290 295 311 288 288 266 293 309 339 195 197 245 259 239 229 236 220 203 211 225 161 184 205 189 168
265 244 293 306 304 333 328 310 296 337 302 252 278 274 239 232 249 137 177 205 207 224 242 226 175 175 173 147 175 185 169 154
200 207 241 282 318 298 270 270 295 290 290 283 217 246 216 202 200 227 185 135 174 220 249 204 146 108 136 150 162 169 171 155
106 104 140 183 194 203 196 203 213 216 209 290 268 322 280 243 193 212 290 324 266 212 231 280 152 295 325 145 129 147 152 164
44 56 53 74 97 73 96 111 94 120 182 268 324 314 326 296 186 163 216 372 535 642 660 489 348 335 317 248 147 146 157 149
27 30 23 29 20 16 4 21 43 79 109 144 209 284 349 333 247 271 190 210 437 745 647 606 421 407 292 178 210 195 242 271

GFSFLT1_con_3kmhel_120.txt.gz
Helicity
59 100 132 112 117 176 208 232 212 218 239 230 214 231 182 191 186 192 195 188 182 193 183 176 173 159 164 178 173 170 158 139
135 115 78 108 143 183 165 144 196 287 280 271 228 202 234 195 171 175 222 217 201 193 183 184 181 158 166 154 184 191 184 183
116 228 210 232 193 193 184 135 160 215 250 260 297 264 228 212 223 189 225 239 223 219 205 192 178 169 175 172 216 207 192 230
209 247 253 307 285 288 282 237 173 202 232 292 371 346 317 308 245 223 192 190 226 259 260 227 200 178 195 199 209 215 218 180
337 354 343 313 287 242 269 288 251 245 225 320 310 301 268 231 249 228 193 180 260 294 284 263 241 211 227 234 215 210 227 216
437 406 519 492 322 383 309 341 327 376 454 328 256 228 231 224 218 193 214 212 250 234 256 275 225 215 209 257 252 227 205 234
468 503 680 704 679 717 515 463 431 459 451 427 336 180 213 223 201 211 215 263 262 231 251 277 284 277 253 224 224 233 215 212
474 592 722 773 753 690 575 539 526 450 380 362 333 268 203 149 199 237 259 244 262 167 149 250 303 314 272 258 208 199 190 202
498 535 615 670 659 615 575 459 437 423 376 309 277 218 154 156 123 228 252 244 208 360 123 179 271 343 305 254 237 209 234 234
527 512 526 514 547 549 519 481 407 370 333 300 274 246 182 86 66 158 169 209 231 250 138 146 241 342 304 267 210 224 263 248
534 532 484 454 423 403 401 391 341 335 329 276 245 250 242 174 71 96 201 193 221 272 266 206 235 298 294 248 229 244 264 254
451 374 433 358 326 333 323 318 288 295 304 280 275 291 301 267 188 133 163 253 213 210 210 212 249 256 316 264 255 266 255 242
734 485 521 491 400 384 372 362 300 285 280 288 268 254 255 221 245 301 167 164 216 247 242 188 189 259 290 271 277 265 267 231
266 396 294 388 384 342 324 319 303 285 307 334 290 246 245 213 209 218 194 140 174 190 192 185 194 231 265 256 250 250 247 205
221 314 336 327 387 356 320 314 344 310 272 331 358 325 280 239 216 201 222 279 168 155 129 120 140 194 231 247 235 214 217 177
197 201 227 248 261 298 259 246 265 255 270 328 310 324 243 250 305 228 193 182 224 276 149 142 133 189 240 203 162 150 166 155
83 127 171 214 226 211 224 230 184 144 152 214 268 336 282 308 321 291 218 176 130 204 300 309 294 359 422 275 167 108 135 138
82 102 115 141 133 86 54 97 88 97 116 131 168 238 249 288 286 302 310 257 253 199 247 310 374 385 576 309 196 89 109 135
55 55 66 67 36 34 10 52 55 61 60 68 110 131 164 196 237 272 235 233 219 252 280 274 303 354 364 392 366 189 255 298

GFSFLT1_con_3kmhel_123.txt.gz
Helicity
80 108 148 106 88 83 71 101 109 123 148 185 143 111 78 85 123 135 149 167 180 157 146 148 134 151 166 166 151 152 125 113
103 65 114 130 117 122 22 39 40 129 167 168 145 145 135 95 69 92 126 138 169 154 160 158 153 150 168 177 184 163 141 148
87 150 173 231 191 243 177 115 27 80 145 150 186 149 151 139 114 94 114 147 196 172 189 194 179 190 164 181 197 209 173 215
114 231 266 294 288 294 260 231 215 114 69 138 186 141 126 130 124 121 143 121 135 169 163 181 222 218 202 182 193 168 195 188
163 255 264 347 345 321 310 225 209 205 142 103 131 181 166 170 180 194 180 133 137 144 206 192 182 221 198 189 194 165 177 187
163 237 252 306 398 399 350 267 273 280 264 233 147 125 144 140 181 180 195 177 176 180 215 229 221 201 181 213 188 184 193 188
179 250 255 293 354 376 393 352 338 334 321 320 313 163 108 120 124 146 148 179 223 236 228 238 214 188 188 227 174 157 192 206
260 306 328 344 402 472 374 409 371 322 352 374 314 301 239 191 94 125 158 187 229 232 269 269 264 231 244 254 227 187 214 209
317 327 358 403 476 495 542 567 541 460 461 452 400 321 136 171 154 147 123 158 156 141 196 176 190 325 311 212 262 235 237 218
479 447 465 501 519 515 516 513 488 433 412 418 365 216 165 149 106 78 107 117 133 135 165 186 182 231 362 196 265 288 291 214
635 557 599 545 492 478 476 449 417 510 381 259 206 244 151 111 75 84 55 70 108 101 102 121 162 218 241 201 247 281 294 238
638 668 650 601 548 507 415 394 432 464 424 242 168 195 202 208 186 184 182 137 108 114 104 106 122 179 203 208 219 262 274 258
258 443 596 662 699 642 551 449 424 348 279 302 293 275 331 302 254 251 263 263 122 129 135 120 109 125 159 214 214 249 257 299
267 354 471 499 463 438 440 344 327 295 318 341 358 350 328 321 310 287 268 276 283 159 149 147 135 136 155 175 190 229 250 260
173 258 297 359 428 476 400 331 273 287 288 322 388 401 341 296 280 237 244 284 271 249 269 207 180 159 170 177 195 200 229 243
177 186 205 199 232 254 243 295 272 209 195 264 318 331 291 317 253 216 232 234 283 253 259 286 356 408 373 305 209 193 183 231
56 72 92 121 148 179 184 217 231 111 124 175 177 205 242 260 289 250 241 215 199 233 311 302 300 324 425 383 270 187 217 242
33 31 39 50 70 68 75 80 68 90 89 85 106 114 148 237 259 226 255 249 218 132 175 190 240 245 321 264 259 221 207 253
46 56 58 55 41 62 52 88 100 87 72 65 85 82 78 85 104 159 191 205 193 199 214 280 180 260 352 252 178 317 505 341

GFSFLT1_con_3kmhel_129.txt.gz
Helicity
212 260 245 72 141 157 158 214 226 68 84 101 121 166 151 144 129 83 72 68 85 102 93 105 102 89 128 143 152 116 85 65
148 148 187 285 208 272 333 251 294 344 121 133 131 170 204 148 147 94 119 88 110 142 146 127 137 145 165 151 167 132 121 97
91 98 143 242 225 145 188 135 224 267 81 112 128 168 180 169 133 149 153 138 130 144 176 124 145 164 174 173 178 176 123 150
56 56 94 121 150 243 152 163 169 150 420 107 129 165 158 143 129 154 120 124 128 148 156 142 175 160 142 188 186 172 165 184
37 93 120 113 83 82 81 182 145 213 271 111 160 156 188 174 166 137 128 116 107 81 85 114 130 127 116 182 211 207 193 200
23 66 111 112 86 89 66 132 154 155 185 365 265 139 208 204 200 166 159 132 103 96 71 59 87 116 140 188 223 216 232 204
37 59 89 129 125 112 72 137 151 140 117 323 332 162 190 344 411 218 307 262 199 140 109 96 81 108 167 155 204 215 207 134
31 59 94 136 197 156 151 159 233 238 170 290 508 345 306 298 448 -35 187 60 130 113 97 117 154 156 172 155 172 192 174 212
33 50 99 133 241 249 255 219 288 315 289 251 439 589 339 268 301 132 37 149 208 143 117 135 152 190 192 186 216 196 191 228
35 94 178 247 313 367 364 311 284 288 344 373 304 410 428 388 414 231 350 219 240 255 177 98 91 142 164 178 167 193 204 224
50 116 216 307 368 425 430 470 369 285 252 281 241 282 248 297 234 261 275 226 194 205 246 148 65 61 105 138 149 144 186 241
70 120 188 332 337 437 527 601 574 345 275 237 205 217 222 188 208 246 271 278 312 281 279 322 217 109 44 97 136 162 181 240
57 129 164 284 457 577 577 619 596 601 368 241 374 283 242 183 184 142 172 197 211 230 252 323 377 303 315 274 176 172 186 198
87 133 203 256 336 467 555 528 583 553 497 316 316 250 202 235 241 245 160 146 164 248 290 271 267 297 296 232 272 343 265 198
110 128 163 205 255 363 357 337 377 390 416 384 284 286 246 162 179 170 199 106 147 118 176 149 192 305 298 369 293 268 269 293
86 125 148 165 200 260 282 278 273 328 357 453 391 317 293 246 269 300 259 335 251 284 257 240 225 234 283 297 276 223 272 261
25 42 53 66 58 106 139 186 189 181 272 249 219 239 253 271 200 204 211 150 224 166 136 97 229 156 349 262 202 187 187 220
16 36 57 74 96 103 121 109 98 115 113 155 142 104 89 77 59 66 100 133 139 161 138 102 110 184 263 284 155 96 84 133
33 36 33 43 60 59 46 61 90 96 103 101 105 84 77 65 64 77 66 60 52 40 51 62 82 119 246 265 122 96 100 89

GFSFLT1_con_3kmhel_132.txt.gz
Helicity
128 118 109 69 156 321 354 359 143 169 138 200 81 159 165 173 214 172 158 191 135 130 121 148 118 88 87 111 102 89 110 92
135 78 74 101 52 191 272 199 299 223 206 333 293 122 144 127 219 194 189 198 158 129 180 167 132 113 102 129 154 142 157 128
77 59 69 130 144 44 198 214 65 89 33 131 307 220 114 194 180 220 222 226 159 134 212 161 167 121 135 195 171 141 111 110
36 42 75 111 143 139 48 159 112 -4 -53 -49 45 186 119 152 154 226 267 235 203 162 175 287 217 175 138 195 204 176 182 144
18 31 68 94 85 91 125 52 162 57 73 -96 -30 92 256 136 214 241 261 253 288 215 196 227 230 217 164 173 213 190 203 182
14 19 15 8 28 67 118 126 130 81 82 100 -181 -85 128 105 171 209 181 255 266 290 248 201 196 266 177 148 176 211 205 186
13 9 -6 -7 59 96 97 186 109 62 61 129 -50 -84 16 92 170 192 234 247 211 232 226 140 117 167 136 94 178 198 207 185
-18 -23 -13 27 59 66 131 199 144 88 167 147 141 -56 -94 134 147 161 794 552 450 406 258 196 121 108 100 144 182 195 194 222
-23 -33 -7 52 79 195 230 235 226 178 176 267 272 146 52 113 264 706 176 361 293 305 262 222 99 114 111 157 184 206 207 209
2 -9 11 71 122 153 242 355 318 256 303 355 337 337 345 230 269 275 369 453 428 156 10 198 216 94 100 146 192 189 215 214
25 5 6 102 181 261 324 452 394 393 320 395 359 389 513 368 304 255 317 361 365 185 195 148 172 272 252 149 154 145 140 174
42 10 43 92 163 289 372 428 505 394 243 339 543 437 338 425 339 423 287 329 244 105 138 231 225 247 308 314 309 233 141 125
37 38 68 105 172 197 349 440 648 403 257 253 279 356 363 337 386 354 361 357 299 275 248 238 285 272 296 275 262 253 205 222
62 72 103 125 152 182 178 285 545 698 597 481 475 408 360 309 290 230 218 192 200 226 262 274 294 310 330 293 244 231 251 249
32 81 116 130 123 161 131 178 284 430 530 567 524 468 398 339 278 260 242 200 199 170 159 177 219 283 346 308 214 179 156 212
-6 -6 40 102 148 99 112 93 145 181 271 340 397 288 330 288 274 218 210 197 186 146 126 176 101 143 236 264 199 234 262 161
6 -3 6 43 42 60 47 39 54 48 67 132 106 194 107 169 196 177 180 242 315 279 351 282 263 323 315 399 116 159 121 160
16 0 -11 22 16 24 38 53 80 85 79 85 113 67 127 117 83 100 116 122 90 104 139 129 135 193 250 217 154 19 136 111
8 -9 -11 -1 12 -9 12 32 46 69 76 86 91 86 92 79 76 84 86 76 64 45 57 69 49 91 167 173 77 37 11 19

GFSFLT1_con_3kmhel_135.txt.gz
Helicity
97 64 21 8 41 34 7 65 73 -67 -171 -24 137 180 166 202 131 189 236 256 213 172 196 184 173 168 131 141 128 113 116 80
88 95 114 35 11 87 73 -2 118 45 -158 -214 -50 100 148 183 232 69 119 168 294 243 236 213 194 180 181 170 171 121 130 134
58 68 23 13 37 95 143 136 82 156 -4 -82 -148 -109 41 81 151 217 152 68 240 269 236 247 273 221 226 209 189 220 179 191
38 43 3 8 38 105 116 124 86 201 215 -10 -121 -125 -88 -31 18 69 99 97 288 242 215 272 310 295 282 211 206 224 202 203
45 -2 3 35 53 65 53 25 51 37 141 95 1 -91 -65 -36 -9 26 90 87 157 268 260 266 301 308 272 285 246 199 214 159
-16 -20 3 28 26 62 56 47 102 149 139 117 75 21 -34 -26 -2 28 70 86 98 256 274 278 339 269 249 244 280 230 241 223
-8 10 18 1 8 46 57 38 94 120 175 144 117 73 -9 45 89 -40 -56 42 106 145 342 298 355 287 273 265 240 212 238 210
1 8 8 -9 -12 32 35 115 115 105 181 126 116 115 70 -8 124 -59 131 156 185 210 383 542 325 255 207 234 240 182 200 191
2 14 -2 1 -6 55 85 117 191 177 184 222 151 128 130 116 113 162 278 102 257 61 -21 504 420 433 175 168 196 203 182 185
16 23 21 14 23 80 80 137 328 433 349 266 253 228 257 275 263 263 226 147 331 221 214 241 427 552 331 44 194 197 182 167
47 29 14 38 53 41 90 177 383 529 444 372 408 380 360 401 458 560 226 317 355 649 372 206 346 262 394 155 237 265 223 163
23 36 54 2 50 59 118 190 231 551 557 522 491 396 468 510 534 660 516 391 483 390 535 517 515 489 272 211 233 225 242 263
1 26 68 62 73 82 84 164 137 357 560 607 412 335 201 624 548 471 502 371 401 430 550 462 199 193 168 160 142 186 203 197
-24 22 72 76 69 98 83 85 113 257 323 363 487 563 858 588 575 525 485 434 434 366 397 443 329 343 253 213 158 146 123 179
-3 3 8 25 21 44 60 85 78 129 138 187 313 470 458 446 424 461 462 456 474 407 416 469 494 477 398 307 312 278 236 204
34 15 27 19 22 31 46 34 14 22 91 151 222 231 200 217 265 237 228 265 304 367 388 406 384 442 398 282 277 293 273 215
33 4 3 3 -9 -20 -15 6 45 53 54 -4 23 37 80 87 99 116 141 178 153 104 133 155 189 231 234 274 170 166 235 318
15 -4 -4 8 2 6 34 48 51 19 45 45 45 33 57 69 64 87 99 95 97 114 106 122 162 184 193 158 148 75 68 102
-4 -31 -19 -6 -7 -15 -11 4 26 39 54 71 82 76 49 35 58 77 69 27 32 46 61 66 74 119 150 130 93 63 47 44

GFSFLT1_con_3kmhel_138.txt.gz
Helicity
137 102 50 32 42 40 57 37 -28 11 -17 -123 -101 -120 -66 -23 18 15 102 138 104 200 202 233 260 223 197 173 151 124 112 92
157 137 88 75 71 26 -2 1 71 74 68 65 -106 -106 -96 -26 -27 35 53 65 167 93 123 220 246 222 195 189 191 163 134 162
132 71 40 15 9 -6 -6 25 77 125 152 113 108 -61 -115 -82 -0 -23 34 41 179 72 185 161 215 238 215 207 210 194 151 192
77 31 56 69 33 18 -7 2 69 125 138 90 63 49 -94 -135 -108 -34 6 23 39 264 61 96 202 277 278 245 209 217 185 199
61 34 63 74 38 8 20 36 85 64 96 74 30 -8 -30 -77 -96 -82 31 36 24 80 55 62 112 255 289 260 244 245 235 228
50 31 58 41 6 7 36 51 36 51 61 91 42 18 17 -33 -58 -21 -4 118 5 62 57 59 116 115 245 274 258 288 287 270
20 45 45 28 31 47 43 24 27 86 62 88 140 71 54 23 25 9 13 55 144 66 -52 -107 186 308 123 336 302 274 277 265
34 22 48 21 24 45 27 27 72 115 111 100 155 137 77 58 45 53 94 22 145 83 149 27 -41 40 247 298 373 308 311 313
4 61 31 -15 5 4 29 56 73 79 148 197 268 203 77 87 84 67 128 151 233 307 128 22 47 77 426 792 298 246 240 275
53 54 12 7 1 1 3 26 96 125 235 308 266 181 208 178 179 144 223 256 208 214 221 178 233 108 562 292 261 255 259 134
64 37 33 31 17 -2 23 40 66 129 232 350 279 305 361 303 246 348 359 378 390 431 303 291 495 535 543 253 224 149 159 225
33 -3 31 8 10 22 27 47 44 71 160 223 409 449 549 495 395 379 545 534 517 524 500 523 455 456 523 588 321 222 245 226
1 -20 18 13 6 30 36 35 15 37 107 162 194 520 704 884 599 553 577 596 638 555 533 617 665 582 460 626 639 507 350 570
-7 -0 7 19 15 5 8 12 39 49 94 163 182 246 417 367 573 589 592 623 642 669 583 497 433 406 440 522 182 282 285 175
-3 26 35 22 8 5 2 -14 -16 -12 39 84 90 68 192 331 254 431 606 540 543 393 446 420 366 377 358 246 141 135 163 256
16 34 16 9 -0 -10 -6 3 12 -28 -50 -17 -17 -39 62 108 217 231 224 295 342 354 396 390 425 448 425 306 280 245 249 280
10 21 6 9 23 14 34 37 41 41 23 25 -28 -19 29 54 110 144 148 174 182 198 264 315 304 266 229 207 175 175 186 188
9 16 13 11 9 3 23 24 20 63 69 52 54 63 35 50 58 107 156 161 138 133 140 143 160 155 162 127 101 37 36 56
2 2 30 22 13 5 -6 7 24 24 59 67 77 61 55 68 67 63 53 51 118 162 168 141 121 144 148 125 83 30 15 6